Location: Unspecified
(0.0000°N, 0.0000°E)
Time: 22:15:50
(UTC+00:00)

S-56A Canister/Altair - Visible Passes

Search period start: 01 October 2016 00:00
Search period end: 11 October 2016 00:00
Orbit: 640 x 2494 km, 38.9° (Epoch: 30 September)

Date Brightness Start Highest point End Pass type
(mag) Time Alt. Az. Time Alt. Az. Time Alt. Az.
01 Oct 11.4 02:49:07 13° SSW 02:49:07 13° SSW 02:52:05 10° S visible
01 Oct 10.8 19:45:01 10° N 19:48:14 15° NNE 19:48:14 15° NNE visible
01 Oct 11.3 21:45:27 10° NW 21:45:41 11° NW 21:45:41 11° NW visible
02 Oct 11.4 02:18:00 13° S 02:18:00 13° S 02:20:23 10° S visible
02 Oct 10.8 19:14:18 10° NNE 19:17:40 12° NE 19:17:40 12° NE visible
02 Oct 10.9 21:13:07 10° NNW 21:15:08 18° NNW 21:15:08 18° NNW visible
03 Oct 11.5 01:46:48 12° S 01:46:48 12° S 01:48:15 10° S visible
03 Oct 10.5 20:40:56 10° NNW 20:44:40 26° NNW 20:44:40 26° NNW visible
04 Oct 11.7 01:15:35 11° S 01:15:35 11° S 01:15:53 10° SSE visible
04 Oct 10.1 20:08:52 10° NNW 20:14:20 32° N 20:14:20 32° N visible
05 Oct 10.0 19:36:56 10° NNW 19:44:07 32° NE 19:44:07 32° NE visible
05 Oct 11.0 21:39:36 10° NW 21:41:36 19° NW 21:41:36 19° NW visible
06 Oct 10.0 19:05:11 10° N 19:12:29 26° NE 19:14:03 25° ENE visible
06 Oct 10.3 21:07:07 10° NW 21:11:33 34° NW 21:11:33 34° NW visible
07 Oct 10.1 18:33:38 10° N 18:39:47 21° NE 18:44:09 16° ENE visible
07 Oct 9.6 20:34:46 10° NW 20:41:40 57° NW 20:41:40 57° NW visible
08 Oct 10.3 18:02:26 10° N 18:07:08 16° NE 18:12:49 10° ENE visible
08 Oct 9.1 20:02:31 10° NW 20:11:47 73° NE 20:11:59 73° NE visible
08 Oct 11.2 22:07:55 10° W 22:09:32 16° W 22:09:32 16° W visible
09 Oct 9.1 19:30:22 10° NW 19:38:59 63° NE 19:42:32 46° E visible
09 Oct 10.6 21:35:03 10° WNW 21:40:05 30° W 21:40:05 30° W visible
10 Oct 9.2 18:58:21 10° NNW 19:06:16 52° NE 19:13:20 25° ESE visible
10 Oct 10.0 21:02:21 10° WNW 21:10:55 47° SW 21:10:55 47° SW visible
10 Oct11.923:33:03SSE23:33:03SSE23:08:31WSWvisible
